TimeAKST,TemperatureF,Dew PointF,Humidity,Sea Level PressureIn,VisibilityMPH,Wind Direction,Wind SpeedMPH,Gust SpeedMPH,PrecipitationIn,Events,Conditions,WindDirDegrees,DateUTC
12:08 AM,23.0,19.4,86,29.89,4.0,Calm,Calm,-,N/A,,Mostly Cloudy,0,2013-01-21 09:08:00
12:15 AM,24.8,21.2,86,29.90,10.0,Calm,Calm,-,N/A,,Scattered Clouds,0,2013-01-21 09:15:00
12:53 AM,23.0,21.0,92,29.91,10.0,Calm,Calm,-,N/A,,Scattered Clouds,0,2013-01-21 09:53:00
1:53 AM,24.1,21.0,88,29.91,10.0,Calm,Calm,-,N/A,,Scattered Clouds,0,2013-01-21 10:53:00
3:53 AM,24.1,19.9,84,29.89,10.0,ENE,4.6,-,N/A,,Clear,60,2013-01-21 12:53:00
4:53 AM,21.9,19.0,89,29.89,10.0,NE,4.6,-,N/A,,Partly Cloudy,50,2013-01-21 13:53:00
5:53 AM,21.0,18.0,88,29.88,10.0,Calm,Calm,-,N/A,,Partly Cloudy,0,2013-01-21 14:53:00
6:53 AM,23.0,19.0,85,29.87,10.0,NE,4.6,-,N/A,,Partly Cloudy,40,2013-01-21 15:53:00
7:53 AM,21.0,18.0,88,29.86,10.0,NNE,4.6,-,N/A,,Scattered Clouds,30,2013-01-21 16:53:00
8:53 AM,23.0,19.0,85,29.87,10.0,NE,3.5,-,N/A,,Scattered Clouds,40,2013-01-21 17:53:00
9:53 AM,23.0,19.9,88,29.86,10.0,North,4.6,-,N/A,,Mostly Cloudy,10,2013-01-21 18:53:00
10:53 AM,23.0,19.9,88,29.85,10.0,NE,5.8,-,N/A,,Mostly Cloudy,40,2013-01-21 19:53:00
11:53 AM,26.1,21.0,81,29.83,10.0,North,6.9,-,N/A,,Mostly Cloudy,10,2013-01-21 20:53:00
12:53 PM,26.1,21.0,81,29.82,10.0,North,6.9,-,N/A,,Mostly Cloudy,10,2013-01-21 21:53:00
1:53 PM,28.0,21.0,75,29.81,10.0,North,5.8,-,N/A,,Mostly Cloudy,350,2013-01-21 22:53:00
2:53 PM,28.0,21.0,75,29.78,10.0,NNW,6.9,-,N/A,,Mostly Cloudy,330,2013-01-21 23:53:00
3:53 PM,27.0,21.0,78,29.77,10.0,NNW,6.9,-,N/A,,Mostly Cloudy,340,2013-01-22 00:53:00
4:53 PM,28.0,21.0,75,29.75,10.0,North,6.9,-,N/A,,Mostly Cloudy,360,2013-01-22 01:53:00
5:53 PM,28.9,21.9,75,29.74,10.0,Calm,Calm,-,N/A,,Mostly Cloudy,0,2013-01-22 02:53:00
6:53 PM,30.0,21.0,69,29.73,10.0,North,5.8,-,N/A,,Overcast,10,2013-01-22 03:53:00
7:53 PM,30.0,21.0,69,29.73,10.0,NNW,5.8,-,N/A,,Overcast,340,2013-01-22 04:53:00
8:53 PM,28.9,21.0,72,29.74,10.0,North,8.1,-,N/A,,Mostly Cloudy,10,2013-01-22 05:53:00
9:53 PM,30.0,21.9,72,29.73,10.0,NNE,6.9,-,N/A,,Overcast,20,2013-01-22 06:53:00
10:53 PM,28.0,23.0,81,29.74,10.0,East,3.5,-,N/A,,Overcast,80,2013-01-22 07:53:00
11:53 PM,28.9,23.0,78,29.72,10.0,NE,4.6,-,N/A,,Overcast,40,2013-01-22 08:53:00